Overview Statistics Trail Chart Weather Telemetry Raw packets
 

This is the latest recevied weather packets stored in our database for station/object N5JXS. If no packets are shown the sender has not sent any weather packets the latest 10 day(s).

<< 20 21 22 23 24 25 26 >>
Time Temp. Humidity Pressure Rain* Wind** Luminosity Snow
1788486350 22.78° C 27% 1022.1 hPa 0 mm - 0 W/m² -
1788486046 23.33° C 27% 1022.1 hPa 0 mm - 0 W/m² -
1788485743 23.33° C 26% 1022.1 hPa 0 mm - 0 W/m² -
1788485439 23.33° C 26% 1022.2 hPa 0 mm - 0 W/m² -
1788485139 23.89° C 25% 1022 hPa 0 mm - 0 W/m² -
1788484838 23.89° C 25% 1021.9 hPa 0 mm - 2 W/m² -
1788484532 24.44° C 25% 1022 hPa 0 mm - 3 W/m² -
1788484258 24.44° C 24% 1022 hPa 0 mm - 6 W/m² -
1788483924 25° C 24% 1021.9 hPa 0 mm - 7 W/m² -
1788483620 25.56° C 23% 1022 hPa 0 mm - 8 W/m² -
1788483320 25.56° C 23% 1021.9 hPa 0 mm - 11 W/m² -
1788483015 25.56° C 23% 1022 hPa 0 mm - 12 W/m² -
1788482711 25.56° C 23% 1022 hPa 0 mm - 14 W/m² -
1788482411 26.11° C 22% 1022.1 hPa 0 mm - 13 W/m² -
1788482107 26.67° C 21% 1022 hPa 0 mm - 15 W/m² -
1788481802 26.67° C 21% 1022.1 hPa 0 mm - 18 W/m² -
1788481498 27.22° C 21% 1022 hPa 0 mm - 20 W/m² -
1788481197 27.22° C 21% 1022 hPa 0 mm - 44 W/m² -
1788480893 27.78° C 21% 1022 hPa 0 mm - 27 W/m² -
1788480587 27.78° C 21% 1021.9 hPa 0 mm - 49 W/m² -
1788480286 28.33° C 20% 1021.9 hPa 0 mm - 38 W/m² -
1788479982 28.33° C 20% 1021.9 hPa 0 mm - 80 W/m² -
1788479678 27.78° C 21% 1022.1 hPa 0 mm - 89 W/m² -
1788479372 27.78° C 20% 1021.9 hPa 0 mm - 114 W/m² -
1788479068 27.22° C 21% 1022.1 hPa 0 mm - 76 W/m² -

* Rain latest hour (hover to see other rain measurements)
** Current wind speed in m/s (hover to see current wind gust speed)